GLOBALSTAR M079 [+]

Last updated on July 6, 2021, 3:36 p.m. UTC

1 37188U 10054A   21186.78576319 -.00000078  00000-0  14211-3 0  9999
2 37188  52.0011 210.6963 0000089 266.9733 265.6253 12.62266537494295
UTC
Height (km)
Latitude
Longitude
Inclination
Orbital Period
UTC large
Height (km)
Speed (km/s)
/
Latitude / Longitude
Inclination (degrees)
Orbital Period (minutes)
Azimuth
Elevation
Range (km)
Doppler Factor
iOS Compass Heading
iOS Angle